User: anonymous   Login
Location: Unspecified
(43.4680°N, 87.1740°E)
Time: 12:47:24
(UTC+00:00)
Language:

Helios 1A Rocket - Orbit

View from above orbital plane
View from above orbital plane
View from above satellite
View from above satellite

Ground track
Ground track

The orbit data is extracted from the following two-line orbital elements,

1 23608U 95033D   21170.63113321  .00000124  00000-0  16283-4 0  9991
2 23608  98.2909 211.2506 0017217 107.0955 253.2152 14.97712783406391
Epoch (UTC): 19 June 2021 15:08:49
Eccentricity: 0.0017217
inclination: 98.2909°
perigee height: 562 km
apogee height: 586 km
right ascension of ascending node: 211.2506°
argument of perigee: 107.0955°
revolutions per day: 14.97712783
mean anomaly at epoch: 253.2152°
orbit number at epoch: 40639

The dashed part of the orbit path shows where the satellite is in the earth's shadow,  

DLR